timestamp,wind_dir_avg,wind_spd_avg,wind_spd_max_dir,wind_spd_gust,battery_voltage,lat,long
2023-08-27 00:04:00+00:00,204.0,6.9,222.0,8.63,12.49,47.59359,-54.27349
2023-08-27 00:14:01+00:00,209.0,7.59,214.0,8.83,12.41,47.59359,-54.27349
2023-08-27 00:24:01+00:00,207.0,6.8,218.0,8.1,12.41,47.59359,-54.27349
2023-08-27 00:34:01+00:00,209.0,7.4,217.0,8.62,12.41,47.59359,-54.27349
2023-08-27 00:44:01+00:00,186.0,6.76,186.0,7.44,12.41,47.59359,-54.27349
2023-08-27 00:54:01+00:00,186.0,6.35,184.0,7.22,12.41,47.59359,-54.27349
2023-08-27 01:04:01+00:00,183.0,5.88,189.0,7.12,12.41,47.59359,-54.27349
2023-08-27 01:14:01+00:00,180.0,5.33,178.0,5.94,12.41,47.59359,-54.27349
2023-08-27 01:24:01+00:00,180.0,6.44,180.0,7.26,12.41,47.59359,-54.27349
2023-08-27 01:34:01+00:00,180.0,6.07,205.0,7.39,12.41,47.59359,-54.27349
2023-08-27 01:44:01+00:00,180.0,5.68,206.0,7.3,12.41,47.59359,-54.27349
2023-08-27 01:54:01+00:00,185.0,6.22,182.0,7.12,12.41,47.59359,-54.27349
2023-08-27 02:04:01+00:00,186.0,6.94,203.0,7.8,12.41,47.59359,-54.27349
2023-08-27 02:14:00+00:00,179.0,6.54,182.0,7.54,12.41,47.59359,-54.27349
2023-08-27 02:24:00+00:00,182.0,7.52,183.0,7.94,12.41,47.59359,-54.27349
2023-08-27 02:34:00+00:00,183.0,6.81,179.0,7.54,12.41,47.59359,-54.27349
2023-08-27 02:44:00+00:00,180.0,6.69,181.0,7.84,12.41,47.59359,-54.27349
2023-08-27 02:54:00+00:00,182.0,6.76,181.0,7.35,12.41,47.59359,-54.27349
2023-08-27 03:04:00+00:00,187.0,5.63,190.0,6.49,12.41,47.59359,-54.27349
2023-08-27 03:14:01+00:00,188.0,6.55,185.0,7.33,12.41,47.59359,-54.27349
2023-08-27 03:24:01+00:00,188.0,6.51,187.0,7.54,12.41,47.59359,-54.27349
2023-08-27 03:34:01+00:00,190.0,6.27,189.0,7.2,12.41,47.59359,-54.27349
2023-08-27 03:44:01+00:00,185.0,6.08,181.0,6.67,12.41,47.59359,-54.27349
2023-08-27 03:54:01+00:00,196.0,6.76,209.0,8.13,12.41,47.59359,-54.27349
2023-08-27 04:04:01+00:00,192.0,5.87,186.0,7.22,12.41,47.59359,-54.27349
2023-08-27 04:14:01+00:00,193.0,7.8,193.0,8.53,12.41,47.59359,-54.27349
2023-08-27 04:24:01+00:00,201.0,8.16,213.0,9.42,12.41,47.59359,-54.27349
2023-08-27 04:34:01+00:00,207.0,7.12,210.0,8.22,12.41,47.59359,-54.27349
2023-08-27 04:44:01+00:00,211.0,7.22,222.0,9.44,12.41,47.59359,-54.27349
2023-08-27 04:54:01+00:00,209.0,7.47,212.0,8.57,12.41,47.59359,-54.27349
2023-08-27 05:04:01+00:00,209.0,7.59,224.0,8.88,12.41,47.59359,-54.27349
2023-08-27 05:14:00+00:00,193.0,7.27,195.0,8.21,12.33,47.59359,-54.27349
2023-08-27 05:24:00+00:00,195.0,5.51,200.0,6.5,12.33,47.59359,-54.27349
2023-08-27 05:34:00+00:00,189.0,5.13,186.0,5.94,12.33,47.59359,-54.27349
2023-08-27 05:44:00+00:00,192.0,6.49,199.0,7.83,12.33,47.59359,-54.27349
2023-08-27 05:54:00+00:00,196.0,7.47,200.0,8.66,12.33,47.59359,-54.27349
2023-08-27 06:04:00+00:00,197.0,6.6,214.0,8.04,12.33,47.59359,-54.27349
2023-08-27 06:14:00+00:00,203.0,7.2,212.0,8.15,12.33,47.59359,-54.27349
2023-08-27 06:24:00+00:00,201.0,6.7,203.0,7.51,12.33,47.59359,-54.27349
2023-08-27 06:34:00+00:00,193.0,6.47,211.0,7.63,12.33,47.59359,-54.27349
2023-08-27 06:44:00+00:00,198.0,6.06,211.0,7.66,12.33,47.59359,-54.27349
2023-08-27 06:54:00+00:00,185.0,5.1,185.0,5.71,12.33,47.59359,-54.27349
2023-08-27 07:04:00+00:00,181.0,5.82,183.0,6.52,12.33,47.59359,-54.27349
2023-08-27 07:14:01+00:00,187.0,5.43,189.0,5.71,12.33,47.59359,-54.27349
2023-08-27 07:24:01+00:00,186.0,4.82,183.0,5.65,12.33,47.59359,-54.27349
2023-08-27 07:34:01+00:00,181.0,5.95,183.0,6.76,12.33,47.59359,-54.27349
2023-08-27 07:44:01+00:00,183.0,6.19,182.0,6.82,12.33,47.59359,-54.27349
2023-08-27 07:54:01+00:00,187.0,5.49,189.0,6.19,12.33,47.59359,-54.27349
2023-08-27 08:04:01+00:00,183.0,5.57,188.0,6.51,12.33,47.59359,-54.27349
2023-08-27 08:14:00+00:00,180.0,5.92,180.0,6.49,12.33,47.59359,-54.27349
2023-08-27 08:24:00+00:00,185.0,6.05,189.0,6.91,12.33,47.59359,-54.27349
2023-08-27 08:34:00+00:00,188.0,6.21,194.0,7.67,12.33,47.59359,-54.27349
2023-08-27 08:44:00+00:00,184.0,6.44,185.0,7.07,12.33,47.59359,-54.27349
2023-08-27 08:54:00+00:00,185.0,5.99,183.0,6.96,12.33,47.59359,-54.27349
2023-08-27 09:04:00+00:00,183.0,6.41,183.0,7.33,12.33,47.59359,-54.27349
2023-08-27 09:14:00+00:00,183.0,7.28,184.0,7.93,12.25,47.59359,-54.27349
2023-08-27 09:24:00+00:00,183.0,7.38,201.0,8.45,12.25,47.59359,-54.27349
2023-08-27 09:34:00+00:00,183.0,7.47,198.0,8.19,12.25,47.59359,-54.27349
2023-08-27 09:44:00+00:00,184.0,7.54,190.0,8.27,12.25,47.59359,-54.27349
2023-08-27 09:54:00+00:00,184.0,7.43,185.0,8.28,12.25,47.59359,-54.27349
2023-08-27 10:04:00+00:00,188.0,7.71,189.0,8.44,12.25,47.59359,-54.27349
2023-08-27 10:14:00+00:00,186.0,7.64,186.0,8.59,12.65,47.59359,-54.27349
2023-08-27 10:24:00+00:00,185.0,6.95,189.0,7.78,12.65,47.59359,-54.27349
2023-08-27 10:34:00+00:00,184.0,7.37,195.0,8.21,12.65,47.59359,-54.27349
2023-08-27 10:44:00+00:00,192.0,7.63,198.0,8.2,12.65,47.59359,-54.27349
2023-08-27 10:54:00+00:00,193.0,8.8,196.0,9.7,12.65,47.59359,-54.27349
2023-08-27 11:04:00+00:00,189.0,8.51,190.0,9.22,12.65,47.59359,-54.27349
2023-08-27 11:14:00+00:00,190.0,8.57,197.0,10.16,13.44,47.59359,-54.27349
2023-08-27 11:24:00+00:00,190.0,8.18,205.0,9.41,13.44,47.59359,-54.27349
2023-08-27 11:34:00+00:00,191.0,8.65,201.0,9.95,13.44,47.59359,-54.27349
2023-08-27 11:44:00+00:00,196.0,10.13,199.0,11.26,13.44,47.59359,-54.27349
2023-08-27 11:54:00+00:00,190.0,8.57,201.0,10.39,13.44,47.59359,-54.27349
2023-08-27 12:04:00+00:00,190.0,8.8,200.0,9.98,13.44,47.59359,-54.27349
2023-08-27 12:14:00+00:00,193.0,8.97,199.0,10.49,13.6,47.59359,-54.27349
2023-08-27 12:24:00+00:00,196.0,8.47,203.0,9.86,13.6,47.59359,-54.27349
2023-08-27 12:34:00+00:00,198.0,8.39,203.0,9.75,13.6,47.59359,-54.27349
2023-08-27 12:44:00+00:00,193.0,8.46,204.0,10.13,13.6,47.59359,-54.27349
2023-08-27 12:54:00+00:00,204.0,8.24,208.0,9.05,13.6,47.59359,-54.27349
2023-08-27 13:04:00+00:00,195.0,8.5,189.0,10.62,13.6,47.59359,-54.27349
2023-08-27 13:14:00+00:00,192.0,8.66,199.0,9.63,13.76,47.59359,-54.27349
2023-08-27 13:24:00+00:00,197.0,8.27,207.0,10.37,13.76,47.59359,-54.27349
2023-08-27 13:34:00+00:00,214.0,10.53,226.0,12.21,13.76,47.59359,-54.27349
2023-08-27 13:44:00+00:00,200.0,9.04,204.0,10.31,13.76,47.59359,-54.27349
2023-08-27 13:54:00+00:00,205.0,10.08,214.0,11.21,13.76,47.59359,-54.27349
2023-08-27 14:04:00+00:00,199.0,9.43,210.0,10.95,13.76,47.59359,-54.27349
2023-08-27 14:14:00+00:00,196.0,9.36,206.0,10.99,13.84,47.59359,-54.27349
2023-08-27 14:24:00+00:00,201.0,9.29,202.0,10.54,13.84,47.59359,-54.27349
2023-08-27 14:34:00+00:00,218.0,9.93,230.0,12.28,13.84,47.59359,-54.27349
2023-08-27 14:44:00+00:00,199.0,7.8,195.0,9.34,13.84,47.59359,-54.27349
2023-08-27 14:54:00+00:00,204.0,9.5,217.0,11.92,13.84,47.59359,-54.27349
2023-08-27 15:04:00+00:00,210.0,9.53,221.0,11.85,13.84,47.59359,-54.27349
2023-08-27 15:14:01+00:00,208.0,8.66,224.0,10.44,13.6,47.59359,-54.27349
2023-08-27 15:24:01+00:00,218.0,8.73,232.0,11.45,13.6,47.59359,-54.27349
2023-08-27 15:34:01+00:00,231.0,9.8,237.0,11.72,13.6,47.59359,-54.27349
2023-08-27 15:44:01+00:00,232.0,11.79,231.0,12.93,13.6,47.59359,-54.27349
2023-08-27 15:54:01+00:00,229.0,9.6,233.0,11.64,13.6,47.59359,-54.27349
2023-08-27 16:04:01+00:00,223.0,9.92,230.0,11.67,13.6,47.59359,-54.27349
2023-08-27 16:14:00+00:00,220.0,9.82,224.0,11.65,13.92,47.59359,-54.27349
2023-08-27 16:24:00+00:00,220.0,9.59,227.0,11.07,13.92,47.59359,-54.27349
2023-08-27 16:34:00+00:00,225.0,11.27,228.0,12.54,13.92,47.59359,-54.27349
2023-08-27 16:44:00+00:00,220.0,9.08,228.0,11.85,13.92,47.59359,-54.27349
2023-08-27 16:54:00+00:00,209.0,9.38,220.0,10.92,13.92,47.59359,-54.27349
2023-08-27 17:04:00+00:00,202.0,9.13,218.0,11.53,13.92,47.59359,-54.27349
2023-08-27 17:14:01+00:00,215.0,9.46,227.0,11.45,13.6,47.59359,-54.27349
2023-08-27 17:24:01+00:00,213.0,9.37,226.0,11.07,13.6,47.59359,-54.27349
2023-08-27 17:34:01+00:00,235.0,9.24,243.0,11.75,13.6,47.59359,-54.27349
2023-08-27 17:44:01+00:00,232.0,10.48,237.0,12.36,13.6,47.59359,-54.27349
2023-08-27 17:54:01+00:00,234.0,9.99,240.0,12.49,13.6,47.59359,-54.27349
2023-08-27 18:04:01+00:00,226.0,9.49,234.0,12.13,13.6,47.59359,-54.27349
2023-08-27 18:14:01+00:00,229.0,9.79,233.0,12.25,13.76,47.59359,-54.27349
2023-08-27 18:24:01+00:00,236.0,9.15,244.0,11.79,13.76,47.59359,-54.27349
2023-08-27 18:34:01+00:00,225.0,9.15,230.0,11.42,13.76,47.59359,-54.27349
2023-08-27 18:44:01+00:00,227.0,9.5,231.0,12.11,13.76,47.59359,-54.27349
2023-08-27 18:54:01+00:00,219.0,7.21,225.0,9.06,13.76,47.59359,-54.27349
2023-08-27 19:04:01+00:00,222.0,6.95,221.0,7.72,13.76,47.59359,-54.27349
2023-08-27 19:14:00+00:00,221.0,6.4,221.0,7.3,13.6,47.59359,-54.27349
2023-08-27 19:24:00+00:00,222.0,6.95,230.0,8.38,13.6,47.59359,-54.27349
2023-08-27 19:34:00+00:00,218.0,6.39,225.0,7.43,13.6,47.59359,-54.27349
2023-08-27 19:44:00+00:00,222.0,6.13,221.0,7.4,13.6,47.59359,-54.27349
2023-08-27 19:54:00+00:00,220.0,6.77,224.0,8.49,13.6,47.59359,-54.27349
2023-08-27 20:04:00+00:00,229.0,8.67,239.0,10.97,13.6,47.59359,-54.27349
2023-08-27 20:14:00+00:00,223.0,8.92,226.0,11.05,13.6,47.59359,-54.27349
2023-08-27 20:24:00+00:00,222.0,8.52,228.0,11.5,13.6,47.59359,-54.27349
2023-08-27 20:34:00+00:00,221.0,8.93,233.0,11.63,13.6,47.59359,-54.27349
2023-08-27 20:44:00+00:00,224.0,9.05,228.0,11.02,13.6,47.59359,-54.27349
2023-08-27 20:54:00+00:00,218.0,7.41,211.0,8.76,13.6,47.59359,-54.27349
2023-08-27 21:04:00+00:00,218.0,7.13,218.0,7.93,13.6,47.59359,-54.27349
2023-08-27 21:14:01+00:00,219.0,6.18,217.0,6.88,13.29,47.59359,-54.27349
2023-08-27 21:24:01+00:00,218.0,6.87,218.0,7.66,13.29,47.59359,-54.27349
2023-08-27 21:34:01+00:00,219.0,5.92,225.0,7.11,13.29,47.59359,-54.27349
2023-08-27 21:44:01+00:00,219.0,7.26,226.0,9.05,13.29,47.59359,-54.27349
2023-08-27 21:54:01+00:00,216.0,7.79,225.0,8.99,13.29,47.59359,-54.27349
2023-08-27 22:04:01+00:00,217.0,8.1,222.0,9.18,13.29,47.59359,-54.27349
2023-08-27 22:14:00+00:00,214.0,7.63,219.0,8.8,12.73,47.59359,-54.27349
2023-08-27 22:24:00+00:00,212.0,7.12,223.0,8.54,12.73,47.59359,-54.27349
2023-08-27 22:34:00+00:00,200.0,5.92,210.0,7.2,12.73,47.59359,-54.27349
2023-08-27 22:44:00+00:00,206.0,6.77,210.0,7.77,12.73,47.59359,-54.27349
2023-08-27 22:54:00+00:00,205.0,7.0,214.0,8.11,12.73,47.59359,-54.27349
2023-08-27 23:04:00+00:00,203.0,8.05,209.0,9.66,12.73,47.59359,-54.27349
2023-08-27 23:14:01+00:00,202.0,9.13,205.0,9.88,12.49,47.59359,-54.27349
2023-08-27 23:24:01+00:00,182.0,6.61,188.0,7.64,12.49,47.59359,-54.27349
2023-08-27 23:34:01+00:00,186.0,7.1,199.0,8.58,12.49,47.59359,-54.27349
2023-08-27 23:44:01+00:00,193.0,8.32,201.0,9.76,12.49,47.59359,-54.27349
2023-08-27 23:54:01+00:00,191.0,8.07,196.0,9.36,12.49,47.59359,-54.27349
